Regional Weather Roundup
Issued by NWS

Home | Current Version | Previous Version | Graphics & Text | Print | Product List | Glossary On
Versions: 1 2 3 4 5 6 7 8 9 10 11 12 13 14 15 16 17 18 19 20 21 22 23 24 25 26 27 28 29 30 31 32 33 34 35 36 37 38 39 40 41 42 43 44 45 46 47 48 49 50
000
ASUS43 KMPX 261801
RWRMN
WEATHER ROUNDUP FOR MINNESOTA
NATIONAL WEATHER SERVICE TWIN CITIES/CHANHASSEN MN
100 PM CDT MON SEP 26 2016


NOTE: "FAIR" INDICATES FEW OR NO CLOUDS BELOW 12,000 FEET WITH NO
SIGNIFICANT WEATHER AND/OR OBSTRUCTIONS TO VISIBILITY. N/A MEANS
CURRENT SKY AND/OR WEATHER CONDITIONS ARE NOT AVAILABLE.

MNZ060>063-068>070-261900-
   Twin Cities Metro

CITY           SKY/WX    TMP DP  RH WIND       PRES   REMARKS
TWIN CITIES    MOSUNNY   60  37  42 NW25G39   29.92S
6HR MIN TEMP:  51; 6HR MAX TEMP:  62;

ST PAUL        MOSUNNY   61  39  44 NW25G36   29.92S
CRYSTAL        MOSUNNY   62  36  37 W24G38    29.91S
BLAINE         MOSUNNY   63  39  42 W21G33    29.90F
LAKEVILLE      MOSUNNY   61  39  44 W23G32    29.93R
EDEN PRAIRIE   MOSUNNY   63  37  38 NW25G37   29.92F
6HR MIN TEMP:  50; 6HR MAX TEMP:  63;

LAKEVILLE      MOSUNNY   61  39  44 W23G32    29.93R
SOUTH ST PAUL  MOSUNNY   61  37  41 W18G28    29.91F
LAKE ELMO      FAIR      59  41  51 W21G29    29.92S
$$
MNZ001>005-007-008-013>017-022>024-027-028-261900-
   Northwest Minnesota

CITY           SKY/WX    TMP DP  RH WIND       PRES   REMARKS
BEMIDJI        CLOUDY    55  40  56 W22G29    29.85R
HALLOCK        CLOUDY    57  43  58 NW22G30   29.89S
ROSEAU         CLOUDY    55  46  71 W16G24    29.81R
THIEF RVR FALL MOSUNNY   57  41  55 NW24G32   29.90S
CROOKSTON      MOSUNNY   59  43  55 NW23G37   29.92S
FOSSTON        CLOUDY    54  37  54 NW16G29   29.90R
DETROIT LAKES  SUNNY     59  36  41 NW26G37   29.94S
MOORHEAD       SUNNY     63  30  29 NW24G38   29.96F
PARK RAPIDS    MOSUNNY   60  35  39 NW28G43   29.87F
MAHNOMEN       FAIR      58  38  48 NW26G39   29.90S
$$
MNZ006-009>011-018-025>026-261900-
   North Central Minnesota

CITY           SKY/WX    TMP DP  RH WIND       PRES   REMARKS
BAUDETTE       CLOUDY    52  44  74 NW21G31   29.74S
FLAG ISLAND    CLOUDY    52  46  82 NW25G35   29.72S
INTL FALLS     LGT RAIN  50  47  89 W15G24    29.67R
6HR MIN TEMP:  48; 6HR MAX TEMP:  50; 6HR PCP:  0.07;

WASKISH        CLOUDY    54  45  71 W21G29    29.78S
BIG FORK       LGT RAIN  52  45  76 W6        29.75R
GRAND RAPIDS   CLOUDY    53  40  61 NW17G32   29.79R
ORR            DRIZZLE   48  43  81 W12G26    29.65S
COOK           DRIZZLE   48  45  87 W15G24    29.69R
WALKER         MOCLDY    55  38  53 W18G30    29.84R
$$
MNZ012-019>021-037-261900-
   Northeast Minnesota

CITY           SKY/WX    TMP DP  RH WIND       PRES   REMARKS
DULUTH         LGT RAIN  50  46  86 W18G26    29.72R
6HR MIN TEMP:  48; 6HR MAX TEMP:  52; 6HR PCP:  0.02;

ELY            DRIZZLE   46  46 100 W16G26    29.62R
HIBBING        CLOUDY    48  44  86 W17G26    29.73R
EVELETH        LGT RAIN  47  44  87 W18G26    29.71S
DULUTH HARBOR  DRIZZLE   55  48  76 W22G32    29.74R
TWO HARBORS    CLOUDY    54  46  76 W12G25    29.67R
SILVER BAY     CLOUDY    52  46  82 W9G18     29.62S
GRAND MARAIS     N/A     56  49  77 W8        29.52F
G MARAIS ARPRT DRIZZLE   48  43  81 W12G21    29.53S
$$
MNZ029>031-032-039>041-046>048-054>057-064-261900-
   West Central Minnesota

CITY           SKY/WX    TMP DP  RH WIND       PRES   REMARKS
FERGUS FALLS   SUNNY     61  36  39 NW21G33   29.98F
MORRIS         SUNNY     64  34  32 NW31G41   29.98F
ALEXANDRIA     SUNNY     61  35  37 NW24G36   29.96F
ELBOW LAKE     FAIR      60  35  39 NW22G29   29.99F
GLENWOOD       SUNNY     61  36  39 W24G35    29.97S
BENSON         SUNNY     66  27  22 N32G38    29.99F
MADISON          N/A     66  34  30 NW24G33   30.04F
WILLMAR        FAIR      64  34  32 NW22G35   29.99F
$$
MNZ033>034-036-042>043-049>051-058-059-261900-
   Central Minnesota

CITY           SKY/WX    TMP DP  RH WIND       PRES   REMARKS
ST CLOUD       PTSUNNY   61  41  47 NW21G30   29.91F
6HR MIN TEMP:  48; 6HR MAX TEMP:  61;

SAUK CENTRE    FAIR      59  36  42 NW24G36   29.94F
PAYNESVILLE    SUNNY     61  32  34 NW21G37   29.96F
AITKIN         PTSUNNY   59  36  41 W13G24    29.82S
PINE RIVER     PTSUNNY   57  39  51 NW16G28   29.88S
BRAINERD       PTSUNNY   57  38  48 W21G31    29.86F
STAPLES        MOSUNNY   57  34  41 W28G37    29.89F
LONG PRAIRIE   FAIR      57  37  47 SW22G36   29.94F
LITTLE FALLS   MOSUNNY   59  34  38 W25G36    29.90F
LITCHFIELD     SUNNY     63  36  36 NW24G31   29.96F
BUFFALO        MOSUNNY   61  37  40 W15G29    29.95S
MAPLE LAKE     MOSUNNY   61  40  47 NW23G37   29.95S
HUTCHINSON     SUNNY     64  37  35 W18G32    29.97F
$$
MNZ037-044-045-052-053-261900-
   East Central Minnesota

CITY           SKY/WX    TMP DP  RH WIND       PRES   REMARKS
PRINCETON      PTSUNNY   61  39  44 W24G33    29.89F
MORA           PTSUNNY   55  36  47 NW21G32   29.87S
CAMBRIDGE      PTSUNNY   61  43  51 W20G33    29.87S
MOOSE LAKE     CLOUDY    55  39  54 W14G26    29.78R
HINCKLEY       MOCLDY    57  41  54 W15G25    29.83F
CLOQUET        CLOUDY    54  43  66 W16G25    29.75S
MCGREGOR       PTSUNNY   55  39  54 W18G25    29.81S
$$
MNZ071>073-080-081-089-090-097-098-261900-
   Southwest Minnesota

CITY           SKY/WX    TMP DP  RH WIND       PRES   REMARKS
MONTEVIDEO     SUNNY     66  34  30 N22G36    30.04F
GRANITE FALLS  SUNNY     66  34  30 W28G38    30.04F
CANBY          SUNNY     65  34  31 W22G33    30.07F
MARSHALL       SUNNY     65  34  31 NW26G36   30.04F
REDWOOD FALLS  SUNNY     66  32  28 NW26G36   30.01F
OLIVIA         SUNNY     64  32  29 NW24G36   29.99F
PIPESTONE      SUNNY     64  27  24 NW24G31   30.10F
WINDOM         SUNNY     64  30  27 W24G33    30.06F
WORTHINGTON    SUNNY     63  35  35 W28G37    30.09F
JACKSON        SUNNY     64  28  25 W25G31    30.07F
TRACY          SUNNY     66  35  31 NW18G29   30.07F
$$
MNZ065>067-074>077-082>085-091>093-261900-
   South Central Minnesota

CITY           SKY/WX    TMP DP  RH WIND       PRES   REMARKS
MANKATO        SUNNY     64  35  34 W21G31    29.98F
ST JAMES       SUNNY     66  32  28 W25G32    30.03F
FAIRMONT       SUNNY     65  34  31 NW26G32   30.04F
GLENCOE        SUNNY     64  38  38 W25G32    29.95F
FARIBAULT      SUNNY     64  34  32 W25G40    29.95F
OWATONNA       SUNNY     64  30  27 W25G37    29.96F
WASECA         SUNNY     63  34  34 W22G35    29.99F
ALBERT LEA     SUNNY     64  32  29 W16G30    30.00F
$$
MNZ078>079-086>088-094>096-261900-
   Southeast Minnesota

CITY           SKY/WX    TMP DP  RH WIND       PRES   REMARKS
ROCHESTER      SUNNY     64  33  31 W23G41    29.94F
6HR MIN TEMP:  48; 6HR MAX TEMP:  65;

RED WING       MOSUNNY   64  36  34 NW23G30   29.90S
STANTON        SUNNY     64  37  37 NW28G38   29.93S
DODGE CENTER   SUNNY     63  32  31 W30G38    29.95F
WINONA         SUNNY     63  34  34 NW14G30   29.91F
AUSTIN         SUNNY     64  32  29 W22G31    29.98F
PRESTON        SUNNY     62  32  32 W28G38    29.96F
$$
ABBREVIATIONS USED IN REMARKS
   TC - TEMPERATURES IN CELSIUS
  WCI - WIND CHILL INDEX
   HX - HEAT INDEX
  VSB - VISIBILITY
$$



USA.gov is the U.S. government's official web portal to all federal, state and local government web resources and services.